Weather in Bereznik

Russia / Arkhangel'skaya Oblast'     62°51′04″N   42°43′21″E
temp.,
°C
wind,
m/s
gust,
m/s
humid.,
%
clouds,
%
prec.,
mm/h
press.,
hPa
HPBL,
m
18 may, tue
tue1800:00+12se3984100 0.0 1019234
03:00+10se289194 0.0 1019191
06:00+13se398043 0.0 1019292
09:00+19se475760 0.0 1019725
12:00+22se5746100 0.0 10181250
15:00+24se574024 0.1 10171394
18:00+24sse4948100 0.0 10151084
21:00+19se413674 0.0 1015395
19 may, wed
wed1900:00+16sse4137835 0.0 1015368
03:00+15se312885 0.0 1015298
06:00+18sse310781 0.0 1014360
09:00+24s4756100 0.0 1014713
12:00+28s5739100 0.0 10141496
15:00+30s462810 0.0 10132397
18:00+28sse48355 0.0 1012792
21:00+21sse313605 0.0 1013305
20 may, thu
thu2000:00+19sse313705 0.0 1013407
03:00+16se29860 0.0 1013200
06:00+19sse310710 0.0 1013377
09:00+24sse47470 0.0 1012822
12:00+29sse58310 0.0 10111734
15:00+30s58260 0.0 10092810
18:00+28sse58330 0.0 10082016
21:00+21sse413490 0.0 1008417
21 may, fri
fri2100:00+19sse4136151 0.0 1008475
03:00+17se412690 0.0 1007434
06:00+19sse411700 0.0 1007720
09:00+22s6115043 0.0 10061822
12:00+22s594699 0.0 10062241
15:00+22sw5747100 0.1 10052065
18:00+17w4771100 2.6 1006609
21:00+15wnw386799 2.6 1008495
22 may, sat
sat2200:00+13w286560 0.0 1008293
03:00+9wsw298123 0.0 1010246
06:00+13wsw39575 0.0 1011551
09:00+16wsw583911 0.0 10122277
12:00+18wsw683011 0.0 10122752
15:00+18w57273 0.0 10132581
18:00+18w47325 0.0 10152456
21:00+13sw2751100 0.0 1016161